Torna al catalogo

BLOCK DM-SL R/B

AttivoGTO
NORAD 27855·ROCKET BODY· XX

Lanciato Aug 8, 2003 da Sea Launch Platform

Loading…

TLE

In scadenzaSource: Space-Track

Epoca: Sep 14, 2026, 11:46 UTC

1 27855U 03034B   26257.49076610 -.00000027  00000-0  72204-3 0  9990
2 27855   0.8162 323.8158 7142680 308.0859 231.7742  2.24675236189716

Traccia BLOCK DM-SL R/B in tempo reale con AllMySat

Download on the App Store